Regional Weather Roundup
Issued by NWS Jackson, KY

Home | Current Version | Previous Version | Text Only | Print | Product List | Glossary Off
Versions: 1 2 3 4 5 6 7 8 9 10 11 12 13 14 15 16 17 18 19 20 21 22 23 24 25 26 27 28 29 30 31 32 33 34 35 36 37 38 39 40 41 42 43 44 45 46 47 48 49 50

000
ASUS43 KJKL 310611
RWRJKL

EAST KENTUCKY HOURLY WEATHER ROUNDUP
NATIONAL WEATHER SERVICE JACKSON KY
200 AM EDT SUN AUG 31 2014

NOTE: "FAIR" INDICATES FEW OR NO CLOUDS BELOW 12,000 FEET WITH
NO SIGNIFICANT WEATHER AND/OR OBSTRUCTIONS TO VISIBILITY.

* THESE REPORTS ARE NOT UNDER NWS QUALITY CONTROL AND MAY NOT
  REPORT WEATHER SUCH AS PRECIPITATION AND FOG.

KYZ079-080-083-085-087-088-110-112-115-119-120-310700
...EASTERN KENTUCKY...

CITY           SKY/WX    TMP DP  RH WIND       PRES   REMARKS
JACKSON        RAIN      70  68  93 MISG      30.13F FOG
6HR MIN TEMP:  70; 6HR MAX TEMP:  80; 6HR PCP:  0.57;

LONDON         LGT RAIN  71  68  90 E6        30.10F
6HR MIN TEMP:  71; 6HR MAX TEMP:  82; 6HR PCP:  2.10;

SOMERSET*        N/A     70  70 100 S7        30.11R
MONTICELLO*      N/A     71  69  93 S7        30.11R
6HR MIN TEMP:  71; 6HR MAX TEMP:  80; 6HR PCP:  0.90;

WILLIAMSBURG*  CLEAR     68  68 100 SE7       30.13F
MIDDLESBORO*   DRIZZLE   70  70  99 CALM      30.15F
6HR MIN TEMP:  70; 6HR MAX TEMP:  74; 6HR PCP:  0.45;

HARLAN APT*    MOCLDY    70  70 100 MISG      30.16F
HAZARD APT*    LGT RAIN  70  70 100 CALM      30.14
BLACK MTN*       N/A     63  63 100 SW6         N/A
PIKEVILLE APT* CLOUDY    70  68  94 CALM      30.14S
BIG SANDY*     MOCLDY    70  69  95 S3        30.13F
6HR MIN TEMP:  70; 6HR MAX TEMP:  82;

MOREHEAD APT*  LGT RAIN  72  70  94 CALM      30.11F
$$

KYZ035-036-041-042-044-050-067-078-099-310700
...CENTRAL KENTUCKY...

CITY           SKY/WX    TMP DP  RH WIND       PRES   REMARKS
MT STERLING*   DRIZZLE   70  70 100 SW7       30.10F
FLEMING/MASON* DRIZZLE   70  70 100 SW3       30.08F
DANVILLE*      LGT RAIN  68  68 100 SW3       30.08F
RICHMOND*      CLOUDY    70  68  94 CALM      30.08F
LEXINGTON      RAIN      73  69  87 S10       30.08F
6HR MIN TEMP:  73; 6HR MAX TEMP:  81; 6HR PCP:  0.10;

FRANKFORT      LGT RAIN  73  71  93 SE6       30.05F FOG
6HR MIN TEMP:  72; 6HR MAX TEMP:  74; 6HR PCP:  0.11;

$$

KYZ091>093-OHZ055-061-077-WVZ005-015-034-035-042-310700
...SOUTHERN OHIO/WEST VIRGINIA...

CITY           SKY/WX    TMP DP  RH WIND       PRES   REMARKS
COVINGTON      CLOUDY    72  69  90 SW8       30.06R FOG
COLUMBUS       HVY RAIN  73  70  88 SW3       30.04F FOG
DAYTON         CLOUDY    73  68  84 SW10G18   30.05S
WILMINGTON       N/A     69  67  93 S6        30.06S FOG
HUNTINGTON     LGT RAIN  71  71 100 SW3       30.09F
CHARLESTON     CLOUDY    76  69  79 SW3       30.09R
PINEVILLE*     CLOUDY    71  70  99 MISG      30.20F
BECKLEY        MOCLDY    72  64  76 S7        30.20S
BLUEFIELD      MOCLDY    74  63  68 VRB7      30.23F
$$

VAZ002-007-008-TNZ017-027-036-066-071-310700
...SOUTHWEST VIRGINIA/EAST TENNESSEE...

CITY           SKY/WX    TMP DP  RH WIND       PRES   REMARKS
WISE*          MOCLDY    72  63  73 S7        30.23S
JONESVILLE*    LGT RAIN  70  70 100 CALM      30.19F
ABINGDON*      CLOUDY    73  68  82 CALM      30.19S
BRISTOL        CLOUDY    73  66  78 CALM      30.16R
KNOXVILLE      CLOUDY    70  68  93 SW5       30.14S
OAK RIDGE      CLOUDY    72  70  93 SW3       30.16S
CROSSVILLE       N/A     73  66  78 S6        30.17S
NASHVILLE      MOCLDY    71  70  96 S6        30.07F
$$

...KEY TO REMARKS...
VSB - VISIBILITY IN MILES
WCI - WIND CHILL INDEX
HX  - HEAT INDEX

$$



USA.gov is the U.S. government's official web portal to all federal, state and local government web resources and services.